"Pseudo-MPEC" for P21ANlH

Created 2022 Nov 25 13:22:20 UT using Find_Orb

Click here for an explanation of pseudo-MPECs

 
 Astrometry: 
     P21ANlH* C2022 10 24^!gAstrometrymH4#Eq^=VEJ'redacted;J@click)Cx)soBKi1yF52
     P21ANlH  C2022 10 24(3f44\83TPQ0O!kyvtw8LeAI7e46mGVherem'j[d\orf\!MowHliF52
     P21ANlH  C2022 10 24Ns/pvF[for06(XFO960WMYO9Y1/[9%2;qVijexplanatione9fetF52
     P21ANlH 1C2022 10 25.48227 08 20 30.96 +18 37 26.7    ~BEFq       VNEOCPG96
     P21ANlH 1C2022 10 25.48740 08 20 31.32 +18 37 30.1    ~BEFq 21.4 GVNEOCPG96
     P21ANlH 1C2022 10 25.49255 08 20 31.84 +18 37 34.8    ~BEFq 21.4 GVNEOCPG96
     P21ANlH 1C2022 10 25.49771 08 20 32.26 +18 37 38.4    ~BEFq 21.9 GVNEOCPG96

Station data:
(F52) Pan-STARRS 2, Haleakala  (N20.707382 W156.255910)  US/Hawaii.
   Observers J. Bulger, T. Dukes, T. Lowe, A. Schultz, M. Willman. Measurers
   K. Chambers, S. Chastel, T. de Boer, L. Denneau, J. Fairlamb, H.
   Flewelling, M. Huber, C.-C. Lin, E. Magnier, Y. Ramanjooloo, R. Wainscoat,
   R. Weryk. 1.8-m Ritchey-Chrétien + CCD.
(G96) Mt. Lemmon Survey  (N32.442751 W110.788720)  US/Arizona.  Observers T.
   A. Pruyne, B. M. Africano, E. J. Christensen, G. A. Farneth, D. C. Fuls,
   A. R. Gibbs, A. D. Grauer, H. Gröller, J. A. Johnson, R. A. Kowalski, S.
   M. Larson, G. J. Leonard, D. Rankin, R. L. Seaman, F. C. Shelly, K. W.
   Wierzchoś. 1.5-m reflector + 10K CCD.

Orbital elements:  P21ANlH
   Perihelion 2023 Oct 11.52195 +/- 147 TT = 12:31:36 (JD 2460229.02195)
Epoch 2022 Oct 25.0 TT = JDT 2459877.5   Earth MOID: 0.4337   Ma: 0.0006
M 192.36443596 +/- 120              (J2000 ecliptic)          AutoNEOCP
n   0.47688505 +/- 0.345            Peri.  168.64310 +/- 80
a   1.62253314 +/- 0.783            Node    90.27065 +/- 10
e   0.1079401 +/- 0.17              Incl.   40.25537 +/- 12
P   2.07/754.88d           H 18.4   G  0.15   U 12.0  SR
q 1.44739664 +/- 0.524    Q 1.79766964 +/- 2.31
From 7 observations 2022 Oct. 24-25 (21.9 hr); mean residual 0".31
Residuals in arcseconds: 
221024 F52  .11+  .04-    221025 G96  .70+  .15+    221025 G96  .28-  .06-    
221024 F52  .12-  .02-    221025 G96  .65-  .41-    
221024 F52  .00   .06+    221025 G96  .25+  .32+    

Ephemerides (geocentric):
Date (UTC) HH   RA             Dec           delta  r     elong  mag " sig PA
---- --------  ------------   ------------  ------ ------ -----  --- --------
2022 11 25 13  09 01 02.923   +28 27 24.64  1.1472 1.7815 113.0 21.3 6854 146
2022 11 25 14  09 01 05.497   +28 28 32.03  1.1467 1.7815 113.0 21.3 6875 146
2022 11 25 15  09 01 08.070   +28 29 39.49  1.1463 1.7815 113.0 21.3 6896 146
2022 11 25 16  09 01 10.639   +28 30 47.02  1.1458 1.7814 113.1 21.3 6916 146
2022 11 25 17  09 01 13.207   +28 31 54.61  1.1454 1.7814 113.1 21.3 6937 146
2022 11 25 18  09 01 15.772   +28 33 02.26  1.1450 1.7814 113.1 21.3 6958 146
2022 11 25 19  09 01 18.334   +28 34 09.98  1.1445 1.7814 113.2 21.3 6979 146
2022 11 25 20  09 01 20.894   +28 35 17.77  1.1441 1.7813 113.2 21.3 7000 146
2022 11 25 21  09 01 23.451   +28 36 25.62  1.1436 1.7813 113.2 21.3 7021 146
2022 11 25 22  09 01 26.006   +28 37 33.53  1.1432 1.7813 113.3 21.3 7042 146
2022 11 25 23  09 01 28.558   +28 38 41.51  1.1427 1.7813 113.3 21.3 7063 146
2022 11 26 00  09 01 31.108   +28 39 49.55  1.1423 1.7813 113.3 21.3 7084 146
2022 11 26 01  09 01 33.655   +28 40 57.66  1.1418 1.7812 113.4 21.3 7105 146
2022 11 26 02  09 01 36.199   +28 42 05.84  1.1414 1.7812 113.4 21.3 7126 146
2022 11 26 03  09 01 38.742   +28 43 14.07  1.1410 1.7812 113.5 21.3 7147 146
2022 11 26 04  09 01 41.281   +28 44 22.38  1.1405 1.7812 113.5 21.3 7168 146
2022 11 26 05  09 01 43.818   +28 45 30.74  1.1401 1.7811 113.5 21.3 7190 146
2022 11 26 06  09 01 46.353   +28 46 39.18  1.1396 1.7811 113.6 21.3 7211 146
2022 11 26 07  09 01 48.885   +28 47 47.68  1.1392 1.7811 113.6 21.3 7232 146
2022 11 26 08  09 01 51.414   +28 48 56.24  1.1387 1.7811 113.6 21.2 7254 146
2022 11 26 09  09 01 53.941   +28 50 04.87  1.1383 1.7810 113.7 21.2 7275 146
2022 11 26 10  09 01 56.465   +28 51 13.56  1.1379 1.7810 113.7 21.2 7297 146
2022 11 26 11  09 01 58.987   +28 52 22.32  1.1374 1.7810 113.7 21.2 7318 145
2022 11 26 12  09 02 01.506   +28 53 31.14  1.1370 1.7810 113.8 21.2 7340 145
2022 11 26 13  09 02 04.023   +28 54 40.03  1.1365 1.7809 113.8 21.2 7361 145
2022 11 26 14  09 02 06.537   +28 55 48.99  1.1361 1.7809 113.9 21.2 7383 145
2022 11 26 15  09 02 09.049   +28 56 58.01  1.1357 1.7809 113.9 21.2 7405 145
2022 11 26 16  09 02 11.558   +28 58 07.09  1.1352 1.7809 113.9 21.2 7426 145
2022 11 26 17  09 02 14.064   +28 59 16.24  1.1348 1.7809 114.0 21.2 7448 145
2022 11 26 18  09 02 16.568   +29 00 25.46  1.1343 1.7808 114.0 21.2 7470 145
2022 11 26 19  09 02 19.069   +29 01 34.74  1.1339 1.7808 114.0 21.2 7492 145
2022 11 26 20  09 02 21.568   +29 02 44.08  1.1335 1.7808 114.1 21.2 7514 145
2022 11 26 21  09 02 24.064   +29 03 53.50  1.1330 1.7808 114.1 21.2 7536 145
2022 11 26 22  09 02 26.558   +29 05 02.97  1.1326 1.7807 114.1 21.2 7558 145
2022 11 26 23  09 02 29.049   +29 06 12.52  1.1321 1.7807 114.2 21.2 7580 145
2022 11 27 00  09 02 31.537   +29 07 22.12  1.1317 1.7807 114.2 21.2 7602 145
2022 11 27 01  09 02 34.023   +29 08 31.80  1.1313 1.7807 114.2 21.2 7624 145
2022 11 27 02  09 02 36.506   +29 09 41.54  1.1308 1.7806 114.3 21.2 7646 145
2022 11 27 03  09 02 38.986   +29 10 51.34  1.1304 1.7806 114.3 21.2 7668 145
2022 11 27 04  09 02 41.464   +29 12 01.21  1.1300 1.7806 114.4 21.2 7690 145
2022 11 27 05  09 02 43.939   +29 13 11.15  1.1295 1.7806 114.4 21.2 7713 145
2022 11 27 06  09 02 46.412   +29 14 21.15  1.1291 1.7805 114.4 21.2 7735 145
2022 11 27 07  09 02 48.882   +29 15 31.22  1.1286 1.7805 114.5 21.2 7757 145
2022 11 27 08  09 02 51.350   +29 16 41.35  1.1282 1.7805 114.5 21.2 7780 145
2022 11 27 09  09 02 53.814   +29 17 51.55  1.1278 1.7805 114.5 21.2 7802 145
2022 11 27 10  09 02 56.277   +29 19 01.82  1.1273 1.7804 114.6 21.2 7825 145
2022 11 27 11  09 02 58.736   +29 20 12.15  1.1269 1.7804 114.6 21.2 7847 145
2022 11 27 12  09 03 01.193   +29 21 22.55  1.1265 1.7804 114.6 21.2 7870 145